Overview Statistics Trail Chart Weather Telemetry Raw packets
 

This is the latest recevied weather packets stored in our database for station/object IU1OLT-6. If no packets are shown the sender has not sent any weather packets the latest 10 day(s).

<< 21 22 23 24 25 26 27 >>
Time Temp. Humidity Pressure Rain* Wind** Luminosity Snow
1788168229 18.33° C 72% 1013.5 hPa 0 mm - - -
1788167269 17.22° C 72% 1013.5 hPa 0 mm - - -
1788166357 18.33° C 67% 1013.4 hPa 0 mm - - -
1788165445 17.22° C 72% 1013.5 hPa 0 mm - - -
1788164485 16.67° C 76% 1013.4 hPa 0 mm - - -
1788163525 16.67° C 71% 1013.1 hPa 0 mm - - -
1788162565 16.67° C 74% 1012.9 hPa 0 mm - - -
1788161605 17.78° C 63% 1012.7 hPa 0 mm - - -
1788160693 18.33° C 67% 1012.6 hPa 0 mm - - -
1788159782 17.78° C 43% 1012.6 hPa 0 mm - - -
1788158829 17.22° C 55% 1012.4 hPa 0 mm - - -
1788157861 16.11° C 58% 1012.4 hPa 0 mm - - -
1788155989 15° C 77% 1012.5 hPa 0 mm - - -
1788155078 15° C 74% 1012.3 hPa 0 mm - - -
1788154118 14.44° C 80% 1012.3 hPa 0 mm - - -
1788153157 14.44° C 77% 1012.2 hPa 0 mm - - -
1788152197 15.56° C 68% 1012.1 hPa 0 mm - - -
1788151285 16.11° C 48% 1012 hPa 0 mm - - -
1788149414 15.56° C 39% 1012.2 hPa 0 mm - - -
1788148454 15.56° C 39% 1012.2 hPa 0 mm - - -
1788147494 15° C 44% 1012.2 hPa 0 mm - - -
1788146534 15° C 59% 1012.4 hPa 0 mm - - -
1788145574 15° C 44% 1012.4 hPa 0 mm - - -
1788144614 15.56° C 40% 1012.3 hPa 0 mm - - -
1788143654 15° C 41% 1012.4 hPa 0 mm - - -

* Rain latest hour (hover to see other rain measurements)
** Current wind speed in m/s (hover to see current wind gust speed)